JBU7532 KSAN-KLAX

Flight info

Callsign JBU7532
Flight time 0h 46m
Altitude 10000
Route CLSSY4 MTBAL
Aircraft A20N/M-SDE2E3FGHIRWXY/LB1

Departure

Time 2026-04-26 03:12
Airport San Diego International Airport (KSAN)

Arrival

Time 2026-04-26 03:58
Airport Los Angeles International Airport (KLAX)
Time Latitude Longitude Altitude Speed Heading
2026-04-26 02:53 32.73373 -117.19816 25 ft 0 kts 197°
2026-04-26 03:03 32.73410 -117.19804 31 ft 10 kts 186°
2026-04-26 03:03 32.73471 -117.19833 28 ft 6 kts 112°
2026-04-26 03:03 32.73473 -117.19838 28 ft 0 kts 112°
2026-04-26 03:06 32.73469 -117.19829 28 ft 11 kts 112°
2026-04-26 03:06 32.73363 -117.19424 29 ft 61 kts 106°
2026-04-26 03:06 32.73245 -117.18937 29 ft 61 kts 106°
2026-04-26 03:07 32.73131 -117.18459 25 ft 61 kts 105°
2026-04-26 03:07 32.73002 -117.17952 20 ft 66 kts 107°
2026-04-26 03:07 32.72953 -117.17669 20 ft 4 kts 73°
2026-04-26 03:07 32.72945 -117.17695 19 ft 0 kts 69°
2026-04-26 03:08 32.72944 -117.17697 19 ft 0 kts 69°
2026-04-26 03:08 32.72944 -117.17698 19 ft 0 kts 69°
2026-04-26 03:08 32.72942 -117.17702 22 ft 0 kts 69°
2026-04-26 03:09 32.72944 -117.17699 19 ft 0 kts 67°
2026-04-26 03:10 32.72945 -117.17696 19 ft 3 kts 66°
2026-04-26 03:10 32.73037 -117.17617 23 ft 12 kts
2026-04-26 03:11 32.73025 -117.17615 25 ft 8 kts 350°
2026-04-26 03:11 32.72974 -117.17594 25 ft 13 kts 328°
2026-04-26 03:11 32.73061 -117.17738 23 ft 32 kts 286°
2026-04-26 03:11 32.73233 -117.18454 25 ft 141 kts 287°
2026-04-26 03:12 32.73564 -117.19847 251 ft 199 kts 287°
2026-04-26 03:12 32.74169 -117.21493 871 ft 237 kts 299°
2026-04-26 03:12 32.75050 -117.23120 1841 ft 221 kts 302°
2026-04-26 03:12 32.75906 -117.24575 2430 ft 216 kts 302°
2026-04-26 03:13 32.76753 -117.26029 2866 ft 233 kts 302°
2026-04-26 03:13 32.77697 -117.27711 3312 ft 251 kts 301°
2026-04-26 03:13 32.78663 -117.29467 3884 ft 254 kts 301°
2026-04-26 03:13 32.79627 -117.31245 4525 ft 256 kts 301°
2026-04-26 03:14 32.80686 -117.32954 5204 ft 258 kts 306°
2026-04-26 03:14 32.81782 -117.34640 6196 ft 258 kts 305°
2026-04-26 03:14 32.82870 -117.36324 7468 ft 263 kts 305°
2026-04-26 03:14 32.84021 -117.38111 7740 ft 268 kts 305°
2026-04-26 03:15 32.85131 -117.39835 7871 ft 267 kts 304°
2026-04-26 03:15 32.86260 -117.41587 8146 ft 263 kts 304°
2026-04-26 03:15 32.87360 -117.43292 8927 ft 264 kts 304°
2026-04-26 03:15 32.88495 -117.45062 9110 ft 271 kts 304°
2026-04-26 03:16 32.89640 -117.46844 9272 ft 272 kts 304°
2026-04-26 03:16 32.90792 -117.48635 9429 ft 272 kts 304°
2026-04-26 03:16 32.91941 -117.50424 9578 ft 273 kts 304°
2026-04-26 03:16 32.93086 -117.52204 9712 ft 274 kts 304°
2026-04-26 03:17 32.94257 -117.54026 9840 ft 275 kts 304°
2026-04-26 03:17 32.95421 -117.55841 9950 ft 275 kts 304°
2026-04-26 03:17 32.96567 -117.57628 9985 ft 275 kts 304°
2026-04-26 03:17 32.97725 -117.59435 9982 ft 275 kts 304°
2026-04-26 03:18 32.98874 -117.61230 9988 ft 275 kts 304°
2026-04-26 03:18 33.00069 -117.63099 9986 ft 289 kts 304°
2026-04-26 03:18 33.01292 -117.65013 9986 ft 291 kts 304°
2026-04-26 03:18 33.02517 -117.66921 9983 ft 290 kts 304°
2026-04-26 03:19 33.03761 -117.68864 9993 ft 312 kts 304°
2026-04-26 03:19 33.05122 -117.71006 9983 ft 329 kts 304°
2026-04-26 03:19 33.06601 -117.73102 9982 ft 332 kts 311°
2026-04-26 03:19 33.08334 -117.74956 9982 ft 335 kts 316°
2026-04-26 03:20 33.10117 -117.76744 9980 ft 334 kts 316°
2026-04-26 03:20 33.11868 -117.78520 9984 ft 334 kts 316°
2026-04-26 03:20 33.13635 -117.80320 9974 ft 334 kts 316°
2026-04-26 03:20 33.15397 -117.82115 9984 ft 334 kts 316°
2026-04-26 03:21 33.17162 -117.83914 9973 ft 334 kts 316°
2026-04-26 03:21 33.19071 -117.85520 9975 ft 338 kts 327°
2026-04-26 03:21 33.21246 -117.86623 9972 ft 343 kts 339°
2026-04-26 03:21 33.23584 -117.87248 9971 ft 345 kts 345°
2026-04-26 03:22 33.25933 -117.87817 9967 ft 345 kts 344°
2026-04-26 03:22 33.28286 -117.88397 9970 ft 345 kts 344°
2026-04-26 03:22 33.30631 -117.88979 9973 ft 345 kts 344°
2026-04-26 03:22 33.32979 -117.89564 9971 ft 345 kts 344°
2026-04-26 03:23 33.35336 -117.90153 9970 ft 345 kts 344°
2026-04-26 03:23 33.37660 -117.90734 9967 ft 345 kts 344°
2026-04-26 03:23 33.39967 -117.91473 9903 ft 344 kts 339°
2026-04-26 03:23 33.42245 -117.92310 9512 ft 342 kts 339°
2026-04-26 03:24 33.44503 -117.93135 8992 ft 336 kts 339°
2026-04-26 03:24 33.46744 -117.93952 8480 ft 336 kts 340°
2026-04-26 03:24 33.48961 -117.94759 7972 ft 332 kts 340°
2026-04-26 03:24 33.51176 -117.95568 7473 ft 330 kts 340°
2026-04-26 03:25 33.53343 -117.96356 7232 ft 325 kts 340°
2026-04-26 03:25 33.55548 -117.97160 7105 ft 332 kts 340°
2026-04-26 03:25 33.57736 -117.97957 6999 ft 329 kts 340°
2026-04-26 03:25 33.59922 -117.98755 6670 ft 329 kts 340°
2026-04-26 03:26 33.62091 -117.99546 6174 ft 323 kts 340°
2026-04-26 03:26 33.64205 -118.00315 5671 ft 322 kts 340°
2026-04-26 03:26 33.66332 -118.01091 5154 ft 317 kts 340°
2026-04-26 03:26 33.68453 -118.01865 4603 ft 316 kts 340°
2026-04-26 03:27 33.70526 -118.02622 4092 ft 312 kts 340°
2026-04-26 03:27 33.72579 -118.03372 3761 ft 301 kts 340°
2026-04-26 03:27 33.74523 -118.04081 3608 ft 283 kts 340°
2026-04-26 03:27 33.76353 -118.04746 3543 ft 265 kts 340°
2026-04-26 03:28 33.78057 -118.05368 3544 ft 249 kts 340°
2026-04-26 03:28 33.79672 -118.06108 3543 ft 247 kts 324°
2026-04-26 03:28 33.80935 -118.07460 3539 ft 243 kts 310°
2026-04-26 03:28 33.82078 -118.08971 3538 ft 241 kts 310°
2026-04-26 03:29 33.83337 -118.10196 3572 ft 232 kts 333°
2026-04-26 03:29 33.84959 -118.10605 3563 ft 242 kts 351°
2026-04-26 03:29 33.86531 -118.10789 3568 ft 241 kts 351°
2026-04-26 03:29 33.88187 -118.10982 3566 ft 235 kts 351°
2026-04-26 03:30 33.89794 -118.11159 3574 ft 231 kts 351°
2026-04-26 03:30 33.91340 -118.11585 3577 ft 226 kts 329°
2026-04-26 03:30 33.92452 -118.12850 3572 ft 219 kts 297°
2026-04-26 03:30 33.93062 -118.14454 3560 ft 202 kts 291°
2026-04-26 03:31 33.93615 -118.15997 3565 ft 204 kts 291°
2026-04-26 03:31 33.94174 -118.17557 3566 ft 203 kts 291°
2026-04-26 03:31 33.94732 -118.19123 3544 ft 204 kts 291°
2026-04-26 03:31 33.95259 -118.20715 3280 ft 206 kts 283°
2026-04-26 03:32 33.95367 -118.22450 2841 ft 210 kts 266°
2026-04-26 03:32 33.95182 -118.24185 2497 ft 204 kts 261°
2026-04-26 03:32 33.95013 -118.25784 2264 ft 176 kts 263°
2026-04-26 03:32 33.94867 -118.27174 2013 ft 170 kts 262°
2026-04-26 03:33 33.94725 -118.28573 1772 ft 167 kts 263°
2026-04-26 03:33 33.94581 -118.29975 1536 ft 169 kts 263°
2026-04-26 03:33 33.94439 -118.31375 1303 ft 168 kts 263°
2026-04-26 03:33 33.94296 -118.32779 1063 ft 169 kts 263°
2026-04-26 03:34 33.94157 -118.34139 827 ft 171 kts 262°
2026-04-26 03:34 33.94015 -118.35532 596 ft 163 kts 262°
2026-04-26 03:34 33.93883 -118.36819 379 ft 159 kts 261°
2026-04-26 03:34 33.93746 -118.38166 168 ft 157 kts 262°
2026-04-26 03:35 33.93618 -118.39367 281 ft 177 kts 262°
2026-04-26 03:35 33.93555 -118.40033 520 ft 177 kts 263°
2026-04-26 03:35 33.93466 -118.41221 874 ft 120 kts 265°
2026-04-26 03:35 33.93442 -118.42104 901 ft 96 kts 267°
2026-04-26 03:36 33.93466 -118.43044 1044 ft 136 kts 271°
2026-04-26 03:36 33.93537 -118.44338 1464 ft 165 kts 274°
2026-04-26 03:36 33.93547 -118.45745 1814 ft 173 kts 266°
2026-04-26 03:36 33.93450 -118.47200 1964 ft 178 kts 265°
2026-04-26 03:37 33.93348 -118.48820 2194 ft 209 kts 265°
2026-04-26 03:37 33.93197 -118.50589 2715 ft 216 kts 257°
2026-04-26 03:37 33.92452 -118.52163 3361 ft 224 kts 225°
2026-04-26 03:37 33.91080 -118.53015 3997 ft 231 kts 193°
2026-04-26 03:38 33.89457 -118.53055 4643 ft 237 kts 181°
2026-04-26 03:38 33.87785 -118.52980 4930 ft 239 kts 181°
2026-04-26 03:38 33.86190 -118.52501 4973 ft 246 kts 154°
2026-04-26 03:38 33.84943 -118.51081 4976 ft 252 kts 122°
2026-04-26 03:39 33.84434 -118.49064 4974 ft 256 kts 91°
2026-04-26 03:39 33.84606 -118.46938 4977 ft 256 kts 81°
2026-04-26 03:39 33.84837 -118.44834 4981 ft 255 kts 82°
2026-04-26 03:39 33.85079 -118.42716 4977 ft 254 kts 81°
2026-04-26 03:40 33.85314 -118.40616 4977 ft 255 kts 81°
2026-04-26 03:40 33.85557 -118.38503 4977 ft 254 kts 81°
2026-04-26 03:40 33.85790 -118.36419 4983 ft 251 kts 81°
2026-04-26 03:40 33.86033 -118.34313 4977 ft 255 kts 81°
2026-04-26 03:41 33.86277 -118.32213 4980 ft 253 kts 81°
2026-04-26 03:41 33.86520 -118.30111 4987 ft 253 kts 81°
2026-04-26 03:41 33.86758 -118.28076 4991 ft 253 kts 81°
2026-04-26 03:41 33.87005 -118.25969 4987 ft 254 kts 81°
2026-04-26 03:42 33.87255 -118.23863 4989 ft 253 kts 81°
2026-04-26 03:42 33.87504 -118.21775 4970 ft 253 kts 81°
2026-04-26 03:42 33.87755 -118.19670 4969 ft 254 kts 81°
2026-04-26 03:42 33.88010 -118.17567 4968 ft 254 kts 81°
2026-04-26 03:43 33.88267 -118.15469 4971 ft 254 kts 81°
2026-04-26 03:43 33.88524 -118.13370 4968 ft 254 kts 81°
2026-04-26 03:43 33.88781 -118.11276 4969 ft 253 kts 81°
2026-04-26 03:43 33.89030 -118.09209 4968 ft 254 kts 81°
2026-04-26 03:44 33.89348 -118.07107 4963 ft 253 kts 70°
2026-04-26 03:44 33.90258 -118.05355 4968 ft 243 kts 40°
2026-04-26 03:44 33.91675 -118.04437 4971 ft 228 kts
2026-04-26 03:44 33.93221 -118.04569 4970 ft 222 kts 334°
2026-04-26 03:45 33.94400 -118.05663 4969 ft 213 kts 301°
2026-04-26 03:45 33.94829 -118.07333 4971 ft 220 kts 268°
2026-04-26 03:45 33.94379 -118.09115 4966 ft 232 kts 237°
2026-04-26 03:45 33.93162 -118.10379 4965 ft 238 kts 206°
2026-04-26 03:46 33.91512 -118.10693 4968 ft 247 kts 176°
2026-04-26 03:46 33.89910 -118.09929 4968 ft 254 kts 145°
2026-04-26 03:46 33.88807 -118.08264 4968 ft 261 kts 114°
2026-04-26 03:47 33.88291 -118.03968 5013 ft 262 kts 82°
2026-04-26 03:47 33.88543 -118.01819 4978 ft 256 kts 81°
2026-04-26 03:47 33.88796 -117.99731 4776 ft 249 kts 81°
2026-04-26 03:47 33.89052 -117.97684 4363 ft 248 kts 81°
2026-04-26 03:48 33.89308 -117.95632 4001 ft 245 kts 81°
2026-04-26 03:48 33.89582 -117.93621 3668 ft 241 kts 75°
2026-04-26 03:48 33.90399 -117.91898 3589 ft 241 kts 41°
2026-04-26 03:48 33.91832 -117.90953 3581 ft 235 kts
2026-04-26 03:49 33.93434 -117.90950 3565 ft 231 kts 351°
2026-04-26 03:49 33.95015 -117.91160 3567 ft 231 kts 346°
2026-04-26 03:49 33.96441 -117.91986 3562 ft 223 kts 314°
2026-04-26 03:49 33.97263 -117.93518 3563 ft 213 kts 291°
2026-04-26 03:50 33.97836 -117.95086 3560 ft 200 kts 287°
2026-04-26 03:50 33.98094 -117.96733 3567 ft 200 kts 270°
2026-04-26 03:50 33.98026 -117.98401 3594 ft 201 kts 263°
2026-04-26 03:50 33.97855 -118.00056 3601 ft 195 kts 262°
2026-04-26 03:51 33.97703 -118.01530 3596 ft 163 kts 263°
2026-04-26 03:51 33.97573 -118.02818 3598 ft 155 kts 262°
2026-04-26 03:51 33.97440 -118.04118 3594 ft 157 kts 263°
2026-04-26 03:51 33.97309 -118.05412 3592 ft 156 kts 263°
2026-04-26 03:52 33.97176 -118.06715 3590 ft 157 kts 263°
2026-04-26 03:52 33.97035 -118.08090 3602 ft 172 kts 263°
2026-04-26 03:52 33.96887 -118.09535 3596 ft 175 kts 263°
2026-04-26 03:52 33.96739 -118.10992 3592 ft 174 kts 263°
2026-04-26 03:53 33.96591 -118.12441 3592 ft 174 kts 263°
2026-04-26 03:53 33.96444 -118.13888 3592 ft 174 kts 263°
2026-04-26 03:53 33.96296 -118.15331 3591 ft 172 kts 263°
2026-04-26 03:53 33.96149 -118.16777 3583 ft 176 kts 263°
2026-04-26 03:54 33.96002 -118.18226 3456 ft 173 kts 263°
2026-04-26 03:54 33.95856 -118.19657 3226 ft 168 kts 263°
2026-04-26 03:54 33.95765 -118.20543 3082 ft 163 kts 263°
2026-04-26 03:54 33.95630 -118.21874 2862 ft 161 kts 263°
2026-04-26 03:55 33.95491 -118.23229 2649 ft 161 kts 263°
2026-04-26 03:55 33.95355 -118.24562 2431 ft 162 kts 263°
2026-04-26 03:55 33.95220 -118.25891 2211 ft 159 kts 263°
2026-04-26 03:55 33.95084 -118.27221 1995 ft 158 kts 263°
2026-04-26 03:56 33.94949 -118.28547 1780 ft 159 kts 263°
2026-04-26 03:56 33.94816 -118.29848 1564 ft 159 kts 263°
2026-04-26 03:56 33.94680 -118.31179 1344 ft 157 kts 263°
2026-04-26 03:56 33.94552 -118.32444 1126 ft 158 kts 263°
2026-04-26 03:57 33.94459 -118.33352 978 ft 160 kts 262°
2026-04-26 03:57 33.94296 -118.34953 699 ft 160 kts 262°
2026-04-26 03:57 33.94160 -118.36278 484 ft 157 kts 262°
2026-04-26 03:57 33.94020 -118.37649 259 ft 162 kts 264°
2026-04-26 03:58 33.93888 -118.38950 125 ft 141 kts 262°
2026-04-26 03:58 33.93826 -118.39546 122 ft 106 kts 263°
2026-04-26 03:58 33.93764 -118.40157 121 ft 10 kts 263°
2026-04-26 03:58 33.93753 -118.40269 122 ft 34 kts 263°
2026-04-26 03:59 33.93730 -118.40555 124 ft 35 kts 260°
2026-04-26 03:59 33.93696 -118.40804 122 ft 27 kts 265°
2026-04-26 03:59 33.93703 -118.40870 125 ft 6 kts 298°
2026-04-26 03:59 33.93721 -118.40895 124 ft 4 kts 319°
2026-04-26 04:00 33.93726 -118.40897 125 ft 7 kts 331°
2026-04-26 04:00 33.93729 -118.40899 125 ft 1 kts 333°
2026-04-26 04:00 33.93726 -118.40897 125 ft 0 kts 333°
2026-04-26 04:00 33.93768 -118.40913 122 ft 21 kts 348°
2026-04-26 04:01 33.93885 -118.41036 121 ft 25 kts 275°